DateTimeUTC,F1_A11,F1_S11,BsB_S11,BsG_S11,BsR_S11,BbsB_S11,BbsG_S11,BbsR_S11,BaB_A11,BaG_A11,BaR_A11,Tu_S11,T_S11,Uu_S11,U_S11,P_S11,T1_A11
2021-08-07T09:00:00Z,00000200,20000000,,,,,,,-000.30,-000.02,-000.17,17.4,24.4,02.0,01.3,0665.1,30.9
2021-08-07T09:01:00Z,00000200,20000000,,,,,,,0000.03,0000.12,0000.29,17.4,24.5,02.0,01.3,0665.1,30.9
2021-08-07T09:02:00Z,00000200,20000000,,,,,,,0000.23,0000.41,-000.07,17.4,24.5,02.0,01.3,0665.1,30.9
2021-08-07T09:03:00Z,00000200,60000000,,,,,,,0000.68,0000.18,0000.73,17.4,24.5,02.0,01.3,0665.1,30.9
2021-08-07T09:04:00Z,00000200,40000000,0001.05,0000.37,0000.19,0000.00,0000.08,-000.03,0000.13,0000.26,0000.40,17.4,24.2,02.6,01.7,0666.1,30.9
2021-08-07T09:05:00Z,00000200,00000000,0000.29,0000.33,0000.01,0000.22,0000.02,-000.12,0000.37,0000.37,0000.14,17.4,24.1,02.7,01.8,0666.1,30.9
2021-08-07T09:06:00Z,00000200,00000000,0000.45,0000.19,0000.45,-000.21,0000.18,0000.19,0000.32,0000.53,-000.10,17.4,24.1,02.8,01.9,0666.1,30.9
2021-08-07T09:07:00Z,00000200,00000000,0000.32,0000.59,0000.31,-000.32,-000.04,0000.15,0000.29,0000.04,0000.51,17.4,24.1,02.8,01.9,0666.1,30.9
2021-08-07T09:08:00Z,00000200,00000000,0000.23,0000.18,0000.60,-000.37,0000.07,0000.02,0000.38,0000.63,0000.39,17.4,24.1,03.0,02.0,0666.1,30.9
2021-08-07T09:09:00Z,00000200,00000000,0000.56,0000.38,0000.46,0000.58,0000.39,0000.60,0000.92,0000.30,0000.90,17.5,24.1,03.0,02.0,0666.1,30.9
2021-08-07T09:10:00Z,00000200,00000000,0000.99,0000.42,0000.49,-000.07,0000.25,0000.20,-000.10,0000.36,-000.22,17.6,24.1,03.0,02.0,0666.1,30.9
2021-08-07T09:11:00Z,00000200,00000000,0000.17,0000.44,0000.24,0000.06,0000.23,0000.00,0000.20,0000.53,0000.21,17.6,24.1,03.0,02.0,0666.1,30.9
2021-08-07T09:12:00Z,00000200,00000000,0000.55,0000.25,0000.10,0000.05,0000.14,-000.04,-000.07,-000.57,0000.12,17.6,24.2,03.1,02.1,0666.1,30.9
2021-08-07T09:13:00Z,00000200,00000000,0000.53,0000.48,0000.21,0000.71,0000.19,0000.11,0000.12,0000.46,-000.14,17.6,24.2,03.2,02.1,0666.1,30.9
2021-08-07T09:14:00Z,00000200,00000000,0001.29,0000.61,0000.09,-000.24,0000.07,0000.02,0000.41,0000.32,0000.52,17.6,24.1,03.2,02.1,0666.1,30.9
2021-08-07T09:15:00Z,00000200,00000000,0000.33,0000.25,-000.23,0000.20,0000.12,0000.35,0000.32,0000.02,-000.01,17.5,24.1,03.2,02.2,0666.1,30.9
2021-08-07T09:16:00Z,00000200,00000000,0001.21,0000.30,0000.01,0000.40,0000.17,0000.22,0000.00,0000.17,0000.08,17.5,24.1,03.3,02.2,0666.1,30.9
2021-08-07T09:17:00Z,00000200,00000000,0000.88,0000.65,0000.42,0000.41,0000.05,-000.09,0000.30,0000.03,0000.32,17.5,24.1,03.4,02.3,0666.1,30.9
2021-08-07T09:18:00Z,00000200,00000000,0000.31,0000.49,0000.22,-000.14,0000.43,0000.32,-000.06,0000.06,0000.03,17.5,24.1,03.3,02.2,0666.1,30.9
2021-08-07T09:19:00Z,00000200,00000000,0000.59,0000.39,0000.18,-000.11,0000.21,0000.02,0000.10,0000.20,0000.25,17.4,24.1,03.3,02.2,0666.1,30.9
2021-08-07T09:20:00Z,00000200,00000000,0000.38,0000.59,0000.48,0000.07,0000.00,0000.24,0000.46,0000.48,0000.39,17.4,24.0,03.4,02.3,0666.1,30.9
2021-08-07T09:21:00Z,00000200,00000000,0000.86,0000.12,0000.23,-000.24,-000.19,0000.10,-000.04,-000.17,-000.55,17.4,24.0,03.5,02.3,0666.1,30.9
2021-08-07T09:22:00Z,00000200,00000000,0000.75,0000.53,0000.39,0000.04,-000.22,0000.37,0000.57,0000.50,0000.82,17.4,24.0,03.4,02.3,0666.1,30.9
2021-08-07T09:23:00Z,00000200,00000000,0001.35,0000.41,0000.17,0000.51,-000.15,0000.04,0000.57,0000.37,0000.18,17.4,24.0,03.5,02.3,0666.2,30.9
2021-08-07T09:24:00Z,00000200,00000000,0001.13,0000.52,0000.18,0000.57,0000.35,0000.23,0000.20,0000.83,0000.50,17.5,24.0,03.5,02.3,0666.2,30.9
2021-08-07T09:25:00Z,00000200,00000000,0001.25,0000.24,0000.16,0000.35,0000.18,0000.07,0000.26,-000.18,-000.37,17.6,24.1,03.4,02.3,0666.2,30.9
2021-08-07T09:26:00Z,00000200,00000000,0000.99,0000.57,0000.23,0000.78,0000.14,0000.01,-000.05,-000.16,0000.37,17.6,24.1,03.4,02.3,0666.2,30.9
2021-08-07T09:27:00Z,00000200,00000000,0000.86,0000.23,0000.23,0000.28,0000.09,-000.23,0000.25,0000.36,-000.11,17.7,24.1,03.4,02.3,0666.2,30.9
2021-08-07T09:28:00Z,00000200,00000000,0000.52,0000.72,0000.02,-000.16,0000.31,0000.20,-000.13,-000.27,0000.27,17.7,24.1,03.5,02.4,0666.2,30.9
2021-08-07T09:29:00Z,00000200,00000000,0000.19,0000.15,0000.13,0000.03,0000.23,0000.12,0000.54,0000.45,0000.12,17.7,24.1,03.6,02.4,0666.2,30.9
2021-08-07T09:30:00Z,00000200,00000000,0001.31,0000.47,0000.23,0000.26,0000.27,0000.19,-000.25,0000.00,-000.07,17.7,24.1,03.5,02.4,0666.2,30.9
2021-08-07T09:31:00Z,00000200,00000000,0000.94,0000.39,0000.26,0000.82,0000.13,0000.11,0000.18,-000.02,-000.14,17.6,24.1,03.5,02.4,0666.2,30.9
2021-08-07T09:32:00Z,00000200,00000000,0000.67,0000.67,0000.27,0000.80,-000.04,-000.08,0000.24,0000.52,0000.60,17.6,24.1,03.5,02.3,0666.2,30.9
2021-08-07T09:33:00Z,00000200,00000000,0000.46,0000.36,0000.43,0000.48,0000.22,0000.11,0000.50,-000.02,-000.49,17.5,24.1,03.6,02.4,0666.2,30.9
2021-08-07T09:34:00Z,00000200,00000000,0000.99,0000.43,0000.20,0000.69,0000.10,0000.01,-000.28,0000.09,0000.18,17.5,24.0,03.5,02.4,0666.2,30.9
2021-08-07T09:35:00Z,00000200,00000000,0001.04,0000.43,0000.25,0000.20,-000.00,-000.29,0000.21,-000.17,0000.64,17.5,24.0,03.6,02.4,0666.2,30.9
2021-08-07T09:36:00Z,00000200,00000000,0000.64,0000.39,0000.37,0000.43,0000.23,0000.20,0000.43,0000.18,0000.21,17.5,24.0,03.7,02.5,0666.2,30.9
2021-08-07T09:37:00Z,00000200,00000000,0001.34,0000.30,0000.03,0000.80,-000.04,-000.10,0000.22,0000.82,-000.02,17.4,24.0,03.7,02.5,0666.2,30.9
2021-08-07T09:38:00Z,00000200,00000000,0001.32,0000.67,0000.20,-000.03,0000.13,0000.07,0000.43,0000.04,0000.67,17.5,24.0,03.7,02.5,0666.2,30.9
2021-08-07T09:39:00Z,00000200,00000000,0000.92,0000.56,0000.19,0000.14,0000.27,0000.37,0000.50,0001.04,0000.16,17.5,24.0,03.8,02.6,0666.3,30.9
2021-08-07T09:40:00Z,00000200,00000000,-000.27,0000.25,0000.39,0000.58,0000.08,0000.01,-000.14,-000.11,-000.03,17.6,24.0,03.7,02.5,0666.3,31.0
2021-08-07T09:41:00Z,00000200,00000000,0000.33,0000.50,0000.22,-000.35,0000.46,0000.18,0000.41,-000.10,0000.04,17.7,24.1,03.7,02.5,0666.3,30.9
2021-08-07T09:42:00Z,00000200,00000000,0000.51,0000.40,0000.11,-000.74,0000.13,-000.00,-000.17,-000.08,0000.15,17.7,24.1,03.7,02.5,0666.3,30.9
2021-08-07T09:43:00Z,00000200,00000000,-000.45,0000.47,0000.47,0000.33,0000.22,0000.30,0000.51,0000.52,0000.06,17.7,24.1,03.8,02.6,0666.3,31.0
2021-08-07T09:44:00Z,00000200,00000000,0001.35,0000.32,0000.63,0000.19,0000.16,-000.03,-000.20,-000.13,0000.01,17.7,24.1,03.9,02.6,0666.3,30.9
2021-08-07T09:45:00Z,00000200,00000000,0000.91,0000.64,0000.22,0000.18,0000.18,0000.11,0000.04,-000.25,0000.51,17.7,24.1,03.9,02.6,0666.3,31.0
2021-08-07T09:46:00Z,00000200,00000000,0000.42,0000.37,0000.28,0000.29,0000.20,0000.44,0000.38,0000.37,-000.18,17.6,24.1,03.9,02.6,0666.3,30.9
2021-08-07T09:47:00Z,00000200,00000000,0000.18,0000.35,0000.47,0000.16,-000.02,0000.18,0000.33,0000.48,0000.28,17.6,24.1,03.9,02.6,0666.3,30.9
2021-08-07T09:48:00Z,00000200,00000000,0000.02,0000.26,0000.10,0000.25,0000.24,0000.04,-000.02,0000.28,0000.27,17.6,24.1,03.9,02.6,0666.3,30.9
2021-08-07T09:49:00Z,00000200,00000000,0000.69,0000.49,0000.37,0000.07,0000.30,0000.10,0000.22,0000.01,-000.16,17.5,24.1,04.0,02.7,0666.3,30.9
2021-08-07T09:50:00Z,00000200,00000000,0000.62,0000.37,0000.19,0000.51,0000.08,0000.06,0000.50,0000.25,0000.78,17.5,24.1,04.1,02.8,0666.3,30.9
2021-08-07T09:51:00Z,00000200,00000000,0000.32,0000.54,0000.33,0000.17,0000.25,-000.01,0000.32,0000.47,0000.03,17.5,24.1,04.2,02.8,0666.3,30.9
2021-08-07T09:52:00Z,00000200,00000000,0000.06,0000.58,0000.09,0000.97,0000.31,-000.20,0000.66,0000.33,0000.40,17.5,24.0,04.3,02.9,0666.3,30.9
2021-08-07T09:53:00Z,00000200,00000000,0000.80,0000.16,0000.32,0000.08,0000.06,-000.25,0000.65,0000.62,0000.70,17.5,24.0,04.4,03.0,0666.3,30.9
2021-08-07T09:54:00Z,00000200,00000000,0000.53,0000.70,0000.34,0000.66,-000.14,0000.18,0000.25,0000.64,0000.02,17.6,24.0,04.5,03.0,0666.3,30.9
2021-08-07T09:55:00Z,00000200,00000000,0000.59,0000.19,0000.17,0000.66,0000.32,0000.21,0000.04,-000.14,0000.11,17.6,24.1,04.5,03.0,0666.3,30.9
2021-08-07T09:56:00Z,00000200,00000000,0000.35,0000.49,0000.28,-000.07,-000.28,0000.14,0000.01,0000.38,0000.22,17.7,24.1,04.5,03.0,0666.4,30.9
2021-08-07T09:57:00Z,00000200,40000000,,,,,,,-000.58,-000.63,-000.72,17.7,24.1,04.9,03.3,0666.5,31.0
2021-08-07T09:58:00Z,00000200,60000000,,,,,,,0000.33,0000.14,0000.58,17.5,24.3,04.3,02.8,0665.3,31.0
2021-08-07T09:59:00Z,00000200,20000000,,,,,,,-000.02,0000.22,-000.05,17.4,24.4,04.3,02.8,0665.3,30.9
